CZ-6A DEB, 61357

Orbit data source: Space-Track

CZ-6A DEB, 61357 is space debris in LEO originally from a launch on Tue, 06 Aug 2024 UTC launched from the Taiyaun Space Center, China (TSC). Debris objects in space refer to the collection of defunct objects orbiting the Earth. Examples of debris include non-operational satellites, rocket bodies, and fragments generated from explosions, collisions, or faulty payload assembly.

Loading next visibility...
Identifier
61357, 2024-140VW
Orbit
LEO
Country
Flag of CNCN / PRC
Related business
Manufacturer
SAST
Mission
Spacecraft
Bus & Motor
Unknown
Mass
Unknown
Launch date (UTC)
2024-08-06 (2 years ago)
Launch vehicle
Unknown
Launch site
Taiyaun Space Center, China (TSC)
Object type
Payload
Rocket body
Debris
Shape & HBR
Unknown shape, 0.1 m
Radar Cross Section
Medium (>0.1 m² and <1 m²)

Expand to show TLE details & history
Last TLE update: 19 hours ago

TLE from 19 hours ago
0 CZ-6A DEB
1 61357U 24140VW  26171.18731272  .00002204  00000-0  89081-3 0  9998
2 61357  88.6810 248.5149 0107102 105.4613 255.8438 14.24427260 93008
Epoch: 2026-06-20T04:29Z
TLE epoch observation values (Epoch: 2026-06-20T04:29:43.819Z)
Latitude
-0.00012°
Longitude
-87.32321°
Altitude
833.084 km
Speed
7.426 km/s
True Right ascension
16h 34m 03s
True Declination
0° 00' 00"
Sunlit
Object was in full shadow at epoch
Visualization orbit readout
Latitude
Unknown
Longitude
Unknown
Altitude
Unknown
Speed
Unknown
Apparent Right ascension
Unknown
Apparent Declination
Unknown
Sunlit
N/A
Visualization observer readout
Local Sidereal Time
10:18:05
Azimuth
Unknown
Elevation
Unknown
Doppler factor
Unknown
Orbital elements
Apogee altitude
884.324 km
Perigee altitude
730.407 km
Semi-major axis
7,185.502 km
Eccentricity
0.01071
Inclination
88.681°
RAAN
248.5149°
Arg. of periapsis
105.4613°
True anomaly
254.65774°
Mean anomaly
255.8438°
Eccentric anomaly
255.25037°
Mean motion
3.56334 °/min
Orbital period
101.03 mins
BSTAR
0.00089081
Loading maneuver chart data...
Computing Atmospheric mass density...
Loading historical data...
Loading historical data...
Loading historical data...
Loading historical data...
Loading historical data...
Loading historical data...
Loading historical data...

Documentation

Showing up to 5 results
|